Hourly Data Report for October 06, 2016

All times are specified in Local Standard Time (LST). Add 1 hour to adjust for Daylight Saving Time where and when it is observed.

IQALUIT CLIMATE
NUNAVUT

63°44'50.000" N
68°32'40.000" W
33.50 m
2402592
71321
XFB

Download Data

Hourly Data (October 2016)
Hourly Data Report for October 6, 2016
Temp Definition
°C
Dew Point Temp Definition
°C
Rel Hum Definition
%
Wind Dir Definition
10's deg

Wind Spd Definition
km/h
Visibility Definition
km
Stn Press Definition
kPa
Hmdx Definition


Wind Chill Definition


Weather Definition


TIME
00:00 0.2 -1.7 87 33 38   100.37     LegendNANA
01:00 0.1 -2.3 84 33 38   100.46     LegendNANA
02:00 0.3 -2.4 82 32 38   100.54     LegendNANA
03:00 0.1 -2.1 85 32 37   100.60     LegendNANA
04:00 0.0 -2.3 85 32 31   100.63   -7 LegendNANA
05:00 -0.2 -2.8 83 33 33   100.68   -7 LegendNANA
06:00 -0.3 -2.9 83 32 32   100.75   -7 LegendNANA
07:00 -0.9 -1.9 93 32 35   100.80   -8 LegendNANA
08:00 -0.8 -3.3 83 34 40   100.84   -8 LegendNANA
09:00 -0.2 -3.1 81 33 35   100.86   -7 LegendNANA
10:00 0.2 -3.2 78 33 37   100.88     LegendNANA
11:00 -0.2 -3.4 79 34 36   100.90   -7 LegendNANA
12:00 -0.7 -3.5 81 34 32   100.94   -8 LegendNANA
13:00 -0.9 -4.2 78 35 31   100.97   -8 LegendNANA
14:00 -0.9 -4.4 77 34 26   101.03   -7 LegendNANA
15:00 -1.1 -4.4 78 34 21   101.09   -7 LegendNANA
16:00 -1.2 -4.4 79 34 20   101.12   -7 LegendNANA
17:00 -1.4 -4.6 79 34 23   101.15   -7 LegendNANA
18:00 -1.7 -4.5 81 34 17   101.19   -7 LegendNANA
19:00 -2.1 -5.2 79 34 26   101.20   -9 LegendNANA
20:00 -2.4 -5.3 80 34 21   101.23   -8 LegendNANA
21:00 -2.2 -5.2 80 35 20   101.27   -8 LegendNANA
22:00 -2.4 -5.4 80 36 20   101.29   -8 LegendNANA
23:00 -2.6 -5.7 79 35 22   101.31   -9 LegendNANA

Notes on Data Quality.

Legend

  • E = Estimated
  • M = Missing
  • NA = Not Available
  • ‡ = Partner data that is not subject to review by the National Climate Archives
Date modified: